Location: Ciserano
(45.5833°N, 9.6000°E)
Time: 07:38:24
(UTC+00:00)

Envisat - Pass Details

Date: 29 November 2020
Orbit: 764 x 766 km, 98.1° (Epoch: 26 January)

Event Time Altitude Azimuth Distance (km) Brightness Sun altitude
Rises 04:52:18 0° 18° (NNE) 3,245 6.3 -18.2°
Reaches altitude 10° 04:54:42 10° 24° (NNE) 2,314 5.6 -17.8°
Maximum altitude 04:59:37 47° 99° (E) 1,007 4.1 -17.0°
Drops below altitude 10° 05:04:30 10° 173° (S) 2,296 5.7 -16.1°
Sets 05:06:52 0° 179° (S) 3,217 6.4 -15.7°
